| time (UTC) | temp C | wind direction | speed KPH | gust KPH | rain 1hr cm | rain 24hr cm | rain mn cm | humidity % | barometer mb |
| 20260505101024 | 15 | 165 | 0.0 | 0.0 | 0.00 | 0.00 | 0.00 | 84 | 989.5 |
| 20260505100525 | 15 | 165 | 0.0 | 0.0 | 0.00 | 0.00 | 0.00 | 84 | 989.5 |
| 20260505100024 | 15 | 165 | 0.0 | 1.6 | 0.00 | 0.00 | 0.00 | 84 | 989.7 |
| 20260505095525 | 15 | 165 | 0.0 | 1.6 | 0.00 | 0.00 | 0.00 | 84 | 989.8 |
| 20260505095024 | 15 | 165 | 0.0 | 0.0 | 0.00 | 0.00 | 0.00 | 83 | 989.9 |
| 20260505094525 | 15 | 165 | 0.0 | 0.0 | 0.00 | 0.00 | 0.00 | 83 | 989.7 |
| 20260505094023 | 15 | 165 | 0.0 | 0.0 | 0.00 | 0.00 | 0.00 | 83 | 989.5 |
| 20260505093021 | 15 | 165 | 0.0 | 0.0 | 0.00 | 0.00 | 0.00 | 83 | 989.7 |
| 20260505092521 | 16 | 165 | 0.0 | 0.0 | 0.00 | 0.00 | 0.00 | 82 | 989.7 |
| 20260505092023 | 16 | 165 | 0.0 | 0.0 | 0.00 | 0.00 | 0.00 | 82 | 989.8 |
| 20260505091522 | 16 | 165 | 0.0 | 0.0 | 0.00 | 0.00 | 0.00 | 82 | 989.9 |
| 20260505091021 | 16 | 165 | 0.0 | 0.0 | 0.00 | 0.00 | 0.00 | 82 | 990.0 |
| 20260505090522 | 16 | 165 | 0.0 | 0.0 | 0.00 | 0.00 | 0.00 | 82 | 990.2 |
| 20260505090254 | 16 | 165 | 0.0 | 0.0 | 0.00 | 0.00 | 0.00 | 81 | 990.0 |
| 20260505085522 | 16 | 165 | 0.0 | 0.0 | 0.00 | 0.00 | 0.00 | 81 | 990.1 |
| 20260505085252 | 16 | 165 | 0.0 | 0.0 | 0.00 | 0.00 | 0.00 | 81 | 990.1 |
| 20260505084520 | 16 | 165 | 0.0 | 0.0 | 0.00 | 0.00 | 0.00 | 81 | 990.1 |
| 20260505084021 | 16 | 165 | 0.0 | 0.0 | 0.00 | 0.00 | 0.00 | 80 | 990.1 |
| 20260505083752 | 16 | 165 | 0.0 | 0.0 | 0.00 | 0.00 | 0.00 | 80 | 990.2 |
| 20260505083020 | 16 | 165 | 0.0 | 0.0 | 0.00 | 0.00 | 0.00 | 80 | 990.2 |
| 20260505082519 | 16 | 165 | 0.0 | 0.0 | 0.00 | 0.00 | 0.00 | 79 | 990.3 |
| 20260505082019 | 16 | 165 | 0.0 | 0.0 | 0.00 | 0.00 | 0.00 | 79 | 990.3 |
| 20260505081519 | 16 | 165 | 0.0 | 0.0 | 0.00 | 0.00 | 0.00 | 78 | 990.3 |
| 20260505081017 | 17 | 165 | 0.0 | 1.6 | 0.00 | 0.00 | 0.00 | 78 | 990.4 |
| 20260505080517 | 17 | 165 | 0.0 | 1.6 | 0.00 | 0.00 | 0.00 | 78 | 990.3 |
| 20260505080016 | 17 | 165 | 0.0 | 1.6 | 0.00 | 0.00 | 0.00 | 75 | 990.2 |
| 20260505075747 | 17 | 165 | 0.0 | 1.6 | 0.00 | 0.00 | 0.00 | 75 | 990.2 |
| 20260505075015 | -17 | 165 | 0.0 | 1.6 | 0.00 | 0.00 | 0.00 | 990.3 | |
| 20260505074515 | -17 | 165 | 0.0 | 1.6 | 0.00 | 0.00 | 0.00 | 990.3 | |
| 20260505074242 | -17 | 165 | 0.0 | 0.0 | 0.00 | 0.00 | 0.00 | 990.4 | |
| 20260505073744 | 18 | 165 | 1.6 | 3.2 | 0.00 | 0.00 | 0.00 | 73 | 990.3 |
| 20260505073013 | 18 | 165 | 1.6 | 3.2 | 0.00 | 0.00 | 0.00 | 73 | 990.1 |
| 20260505072513 | 18 | 230 | 0.0 | 0.0 | 0.00 | 0.00 | 0.00 | 72 | 990.3 |
| 20260505072013 | 18 | 230 | 0.0 | 0.0 | 0.00 | 0.00 | 0.00 | 72 | 990.0 |
| 20260505071512 | 18 | 230 | 0.0 | 4.8 | 0.00 | 0.00 | 0.00 | 71 | 989.9 |
| 20260505071012 | 18 | 230 | 1.6 | 6.4 | 0.00 | 0.00 | 0.00 | 71 | 989.8 |
| 20260505070743 | 18 | 272 | 4.8 | 6.4 | 0.00 | 0.00 | 0.00 | 71 | 989.7 |
| 20260505070012 | 18 | 206 | 6.4 | 11.3 | 0.00 | 0.00 | 0.00 | 70 | 989.7 |
| 20260505065511 | 18 | 206 | 6.4 | 11.3 | 0.00 | 0.00 | 0.00 | 70 | 989.7 |
| 20260505065010 | 19 | 243 | 4.8 | 9.7 | 0.00 | 0.00 | 0.00 | 70 | 989.5 |
| 20260505064511 | 19 | 213 | 6.4 | 14.5 | 0.00 | 0.00 | 0.00 | 70 | 989.4 |
| 20260505064009 | 19 | 247 | 6.4 | 14.5 | 0.00 | 0.00 | 0.00 | 70 | 989.5 |
| 20260505063509 | 19 | 241 | 4.8 | 9.7 | 0.00 | 0.00 | 0.00 | 70 | 989.5 |
| 20260505063010 | 19 | 233 | 1.6 | 8.0 | 0.00 | 0.00 | 0.00 | 70 | 989.6 |
| 20260505062510 | 19 | 248 | 3.2 | 8.0 | 0.00 | 0.00 | 0.00 | 70 | 989.8 |
| 20260505062011 | -17 | 264 | 0.0 | 0.0 | 0.00 | 0.00 | 0.00 | 989.9 | |
| 20260505061739 | -17 | 264 | 0.0 | 0.0 | 0.00 | 0.00 | 0.00 | 990.0 | |
| 20260505061008 | 19 | 258 | 3.2 | 6.4 | 0.00 | 0.00 | 0.00 | 69 | 990.1 |
| 20260505060508 | 19 | 258 | 3.2 | 9.7 | 0.00 | 0.00 | 0.00 | 69 | 990.1 |
| 20260505060008 | 19 | 245 | 6.4 | 9.7 | 0.00 | 0.00 | 0.00 | 69 | 990.1 |
| 20260505055740 | 19 | 255 | 6.4 | 11.3 | 0.00 | 0.00 | 0.00 | 69 | 990.1 |
| 20260505055007 | 20 | 252 | 6.4 | 11.3 | 0.00 | 0.00 | 0.00 | 69 | 990.3 |
| 20260505054507 | 20 | 251 | 6.4 | 11.3 | 0.00 | 0.00 | 0.00 | 69 | 990.5 |
| 20260505054007 | 20 | 255 | 6.4 | 9.7 | 0.00 | 0.00 | 0.00 | 68 | 990.6 |
| 20260505053506 | 20 | 243 | 6.4 | 11.3 | 0.00 | 0.00 | 0.00 | 68 | 990.6 |
| 20260505053237 | 20 | 266 | 8.0 | 11.3 | 0.00 | 0.00 | 0.00 | 68 | 990.6 |
| 20260505052738 | 20 | 212 | 9.7 | 14.5 | 0.00 | 0.00 | 0.00 | 68 | 990.7 |
| 20260505052006 | 20 | 230 | 8.0 | 14.5 | 0.00 | 0.00 | 0.00 | 68 | 990.7 |
| 20260505051504 | 20 | 244 | 6.4 | 14.5 | 0.00 | 0.00 | 0.00 | 68 | 990.7 |
| 20260505051006 | 20 | 264 | 8.0 | 14.5 | 0.00 | 0.00 | 0.00 | 67 | 990.7 |
| 20260505050504 | 20 | 261 | 6.4 | 9.7 | 0.00 | 0.00 | 0.00 | 67 | 990.8 |
| 20260505050237 | 20 | 257 | 8.0 | 16.1 | 0.00 | 0.00 | 0.00 | 67 | 990.6 |
| 20260505041502 | 21 | 245 | 4.8 | 11.3 | 0.00 | 0.00 | 0.00 | 65 | 991.0 |
| 20260505041233 | 21 | 254 | 6.4 | 11.3 | 0.00 | 0.00 | 0.00 | 65 | 991.1 |
| 20260505040501 | 21 | 255 | 8.0 | 11.3 | 0.00 | 0.00 | 0.00 | 64 | 991.1 |
| 20260505040000 | 21 | 259 | 8.0 | 9.7 | 0.00 | 0.00 | 0.00 | 64 | 990.9 |
| 20260505035500 | 21 | 271 | 6.4 | 9.7 | 0.00 | 0.00 | 0.00 | 64 | 991.0 |
| 20260505035001 | 21 | 266 | 6.4 | 9.7 | 0.00 | 0.00 | 0.00 | 64 | 991.0 |
| 20260505034731 | 21 | 254 | 6.4 | 9.7 | 0.00 | 0.00 | 0.00 | 63 | 991.0 |
| 20260505034000 | 21 | 244 | 6.4 | 16.1 | 0.00 | 0.00 | 0.00 | 63 | 991.0 |
| 20260505033502 | 21 | 243 | 9.7 | 16.1 | 0.00 | 0.00 | 0.00 | 63 | 991.0 |
| 20260505032959 | 21 | 238 | 9.7 | 11.3 | 0.00 | 0.00 | 0.00 | 63 | 991.0 |
| 20260505032500 | 21 | 241 | 9.7 | 16.1 | 0.00 | 0.00 | 0.00 | 62 | 991.0 |
| 20260505032001 | 21 | 241 | 8.0 | 16.1 | 0.00 | 0.00 | 0.00 | 62 | 991.0 |
| 20260505031459 | 21 | 251 | 9.7 | 16.1 | 0.00 | 0.00 | 0.00 | 62 | 991.0 |
| 20260505030959 | -17 | 261 | 8.0 | 9.7 | 0.00 | 0.00 | 0.00 | 990.9 | |
| 20260505030457 | 21 | 261 | 8.0 | 16.1 | 0.00 | 0.00 | 0.00 | 62 | 990.8 |
| 20260505025958 | 21 | 264 | 8.0 | 16.1 | 0.00 | 0.00 | 0.00 | 62 | 990.7 |
| 20260505025456 | 21 | 264 | 9.7 | 16.1 | 0.00 | 0.00 | 0.00 | 62 | 990.6 |
| 20260505024956 | 21 | 272 | 8.0 | 16.1 | 0.00 | 0.00 | 0.00 | 62 | 990.7 |
| 20260505023957 | 21 | 250 | 9.7 | 14.5 | 0.00 | 0.00 | 0.00 | 62 | 990.5 |
| 20260505023503 | 22 | 221 | 4.8 | 11.3 | 0.00 | 0.00 | 0.00 | 61 | 990.4 |
| 20260505022956 | 22 | 243 | 6.4 | 16.1 | 0.00 | 0.00 | 0.00 | 61 | 990.4 |
| 20260505022457 | 22 | 262 | 9.7 | 16.1 | 0.00 | 0.00 | 0.00 | 61 | 990.2 |
| 20260505021958 | 22 | 243 | 6.4 | 11.3 | 0.00 | 0.00 | 0.00 | 60 | 990.1 |
| 20260505021457 | 22 | 233 | 8.0 | 11.3 | 0.00 | 0.00 | 0.00 | 60 | 990.0 |
| 20260505020956 | 22 | 243 | 4.8 | 11.3 | 0.00 | 0.00 | 0.00 | 59 | 990.0 |
| 20260505020456 | 22 | 206 | 4.8 | 9.7 | 0.00 | 0.00 | 0.00 | 59 | 989.9 |
| 20260505020227 | 22 | 234 | 6.4 | 9.7 | 0.00 | 0.00 | 0.00 | 58 | 989.9 |
| 20260505015456 | 23 | 248 | 8.0 | 17.7 | 0.00 | 0.00 | 0.00 | 58 | 989.9 |
| 20260505015227 | 23 | 265 | 6.4 | 17.7 | 0.00 | 0.00 | 0.00 | 58 | 989.9 |
| 20260505014456 | 23 | 233 | 11.3 | 17.7 | 0.00 | 0.00 | 0.00 | 58 | 989.7 |
| 20260505014228 | 23 | 237 | 8.0 | 14.5 | 0.00 | 0.00 | 0.00 | 58 | 989.7 |
| 20260505013455 | 23 | 252 | 8.0 | 14.5 | 0.00 | 0.00 | 0.00 | 57 | 989.8 |
| 20260505013226 | 23 | 251 | 9.7 | 24.1 | 0.00 | 0.00 | 0.00 | 57 | 989.8 |
| 20260505012454 | 23 | 234 | 9.7 | 24.1 | 0.00 | 0.00 | 0.00 | 57 | 989.6 |
| 20260505011955 | 23 | 240 | 4.8 | 11.3 | 0.00 | 0.00 | 0.00 | 56 | 989.6 |
| 20260505011455 | 23 | 279 | 8.0 | 20.9 | 0.00 | 0.00 | 0.00 | 56 | 989.6 |
| 20260505011226 | 23 | 251 | 9.7 | 20.9 | 0.00 | 0.00 | 0.00 | 56 | 989.6 |
| 20260505010456 | 23 | 247 | 8.0 | 9.7 | 0.00 | 0.00 | 0.00 | 55 | 989.6 |
| 20260505005954 | 24 | 245 | 6.4 | 11.3 | 0.00 | 0.00 | 0.00 | 55 | 989.6 |
| 20260505005455 | 24 | 257 | 6.4 | 11.3 | 0.00 | 0.00 | 0.00 | 54 | 989.6 |
| 20260505004954 | 24 | 250 | 6.4 | 14.5 | 0.00 | 0.00 | 0.00 | 54 | 989.5 |
| 20260505004455 | 24 | 227 | 9.7 | 14.5 | 0.00 | 0.00 | 0.00 | 54 | 989.5 |
| 20260505003955 | -17 | 258 | 11.3 | 9.7 | 0.00 | 0.00 | 0.00 | 989.5 | |
| 20260505003455 | 25 | 258 | 11.3 | 24.1 | 0.00 | 0.00 | 0.00 | 53 | 989.4 |
| 20260505003224 | 25 | 274 | 11.3 | 24.1 | 0.00 | 0.00 | 0.00 | 53 | 989.4 |
| 20260505002453 | 25 | 244 | 8.0 | 17.7 | 0.00 | 0.00 | 0.00 | 52 | 989.4 |
| 20260505001953 | 25 | 237 | 12.9 | 17.7 | 0.00 | 0.00 | 0.00 | 52 | 989.3 |
| 20260505001451 | 25 | 231 | 11.3 | 19.3 | 0.00 | 0.00 | 0.00 | 51 | 989.2 |
| 20260505000952 | 25 | 231 | 11.3 | 19.3 | 0.00 | 0.00 | 0.00 | 51 | 989.3 |
| 20260504235952 | 25 | 257 | 9.7 | 27.4 | 0.00 | 0.00 | 0.00 | 51 | 989.1 |
| 20260504235452 | 25 | 258 | 11.3 | 24.1 | 0.00 | 0.00 | 0.00 | 51 | 989.0 |
| 20260504234952 | 25 | 266 | 12.9 | 24.1 | 0.00 | 0.00 | 0.00 | 50 | 989.0 |
| 20260504234453 | 26 | 255 | 11.3 | 17.7 | 0.00 | 0.00 | 0.00 | 50 | 989.1 |
| 20260504233950 | 26 | 264 | 11.3 | 17.7 | 0.00 | 0.00 | 0.00 | 49 | 989.1 |
| 20260504233450 | 26 | 264 | 11.3 | 19.3 | 0.00 | 0.00 | 0.00 | 49 | 989.1 |
| 20260504232950 | 26 | 252 | 17.7 | 29.0 | 0.00 | 0.00 | 0.00 | 48 | 989.1 |
| 20260504232449 | 26 | 275 | 17.7 | 29.0 | 0.00 | 0.00 | 0.00 | 48 | 989.2 |
| 20260504231950 | -17 | 0.0 | 0.0 | 0.00 | 0.00 | 0.00 | 989.2 | ||
| 20260504231448 | -17 | 0.0 | 0.0 | 0.00 | 0.00 | 0.00 | 989.3 | ||
| 20260504230948 | -17 | 276 | 8.0 | 14.5 | 0.00 | 0.00 | 0.00 | 989.3 | |
| 20260504230446 | 26 | 276 | 8.0 | 20.9 | 0.00 | 0.00 | 0.00 | 47 | 989.2 |
| 20260504225946 | 26 | 258 | 9.7 | 20.9 | 0.00 | 0.00 | 0.00 | 47 | 989.3 |
| 20260504225446 | 26 | 231 | 14.5 | 19.3 | 0.00 | 0.00 | 0.00 | 47 | 989.3 |
| 20260504224946 | 26 | 248 | 11.3 | 25.7 | 0.00 | 0.00 | 0.00 | 47 | 989.3 |
| 20260504224446 | 26 | 244 | 19.3 | 25.7 | 0.00 | 0.00 | 0.00 | 46 | 989.2 |
| 20260504223946 | 26 | 275 | 12.9 | 22.5 | 0.00 | 0.00 | 0.00 | 46 | 989.3 |
| 20260504223444 | 26 | 275 | 12.9 | 22.5 | 0.00 | 0.00 | 0.00 | 46 | 989.3 |
| 20260504222947 | -17 | 0.0 | 0.0 | 0.00 | 0.00 | 0.00 | 989.2 | ||
| 20260504222214 | -17 | 251 | 6.4 | 4.8 | 0.00 | 0.00 | 0.00 | 989.4 | |
| 20260504221441 | 27 | 251 | 6.4 | 19.3 | 0.00 | 0.00 | 0.00 | 45 | 989.3 |
| 20260504220940 | 27 | 295 | 8.0 | 19.3 | 0.00 | 0.00 | 0.00 | 45 | 989.4 |
| 20260504220442 | -17 | 0.0 | 0.0 | 0.00 | 0.00 | 0.00 | 989.4 | ||
| 20260504215940 | -17 | 0.0 | 0.0 | 0.00 | 0.00 | 0.00 | 989.4 | ||
| 20260504215709 | -17 | 0.0 | 0.0 | 0.00 | 0.00 | 0.00 | 989.3 | ||
| 20260504214436 | 27 | 257 | 19.3 | 24.1 | 0.00 | 0.00 | 0.00 | 45 | 989.4 |
| 20260504213936 | -17 | 272 | 19.3 | 14.5 | 0.00 | 0.00 | 0.00 | 989.5 | |
| 20260504213435 | 27 | 272 | 19.3 | 27.4 | 0.00 | 0.00 | 0.00 | 46 | 989.6 |
| 20260504212933 | 27 | 262 | 20.9 | 27.4 | 0.00 | 0.00 | 0.00 | 46 | 989.6 |
| 20260504212437 | 27 | 266 | 12.9 | 16.1 | 0.00 | 0.00 | 0.00 | 46 | 989.7 |
| 20260504211935 | 27 | 266 | 12.9 | 16.1 | 0.00 | 0.00 | 0.00 | 46 | 989.5 |
| 20260504211705 | -17 | 0.0 | 0.0 | 0.00 | 0.00 | 0.00 | 989.5 | ||
| 20260504210932 | -17 | 0.0 | 0.0 | 0.00 | 0.00 | 0.00 | 989.6 | ||
| 20260504210434 | -17 | 0.0 | 0.0 | 0.00 | 0.00 | 0.00 | 989.5 | ||
| 20260504210201 | 27 | 227 | 11.3 | 14.5 | 0.00 | 0.00 | 0.00 | 46 | 989.8 |
| 20260504205428 | 27 | 227 | 11.3 | 16.1 | 0.00 | 0.00 | 0.00 | 46 | 989.7 |
| 20260504204929 | 27 | 281 | 8.0 | 17.7 | 0.00 | 0.00 | 0.00 | 46 | 989.8 |
| 20260504204428 | 27 | 265 | 11.3 | 19.3 | 0.00 | 0.00 | 0.00 | 45 | 989.8 |
| 20260504203928 | 27 | 278 | 11.3 | 19.3 | 0.00 | 0.00 | 0.00 | 45 | 989.9 |
| 20260504203427 | -17 | 0.0 | 0.0 | 0.00 | 0.00 | 0.00 | 989.9 | ||
| 20260504202926 | -17 | 0.0 | 0.0 | 0.00 | 0.00 | 0.00 | 990.0 | ||
| 20260504202425 | -17 | 0.0 | 0.0 | 0.00 | 0.00 | 0.00 | 990.2 | ||
| 20260504201924 | -17 | 358 | 9.7 | 16.1 | 0.00 | 0.00 | 0.00 | 990.1 | |
| 20260504201423 | -17 | 358 | 9.7 | 16.1 | 0.00 | 0.00 | 0.00 | 990.1 | |
| 20260504200923 | 27 | 258 | 22.5 | 29.0 | 0.00 | 0.00 | 0.00 | 44 | 990.0 |
| 20260504200421 | 27 | 258 | 22.5 | 29.0 | 0.00 | 0.00 | 0.00 | 44 | 990.2 |
| 20260504195920 | 27 | 279 | 19.3 | 24.1 | 0.00 | 0.00 | 0.00 | 44 | 990.3 |
| 20260504195421 | -17 | 0.0 | 0.0 | 0.00 | 0.00 | 0.00 | 990.4 | ||
| 20260504194920 | -17 | 0.0 | 0.0 | 0.00 | 0.00 | 0.00 | 990.3 | ||
| 20260504194424 | -17 | 0.0 | 0.0 | 0.00 | 0.00 | 0.00 | 990.4 | ||
| 20260504193940 | -17 | 0.0 | 0.0 | 0.00 | 0.00 | 0.00 | 990.4 | ||
| 20260504193416 | -17 | 0.0 | 0.0 | 0.00 | 0.00 | 0.00 | 990.5 | ||
| 20260504193147 | -17 | 226 | 9.7 | 14.5 | 0.00 | 0.00 | 0.00 | 990.5 | |
| 20260504192645 | -17 | 226 | 9.7 | 14.5 | 0.00 | 0.00 | 0.00 | 990.4 | |
| 20260504191914 | -17 | 0.0 | 0.0 | 0.00 | 0.00 | 0.00 | 990.6 | ||
| 20260504191413 | -17 | 0.0 | 0.0 | 0.00 | 0.00 | 0.00 | 990.6 | ||
| 20260504190912 | -17 | 0.0 | 0.0 | 0.00 | 0.00 | 0.00 | 990.6 | ||
| 20260504190410 | -17 | 0.0 | 0.0 | 0.00 | 0.00 | 0.00 | 990.7 | ||
| 20260504185910 | -17 | 0.0 | 0.0 | 0.00 | 0.00 | 0.00 | 990.8 | ||
| 20260504185408 | 26 | 233 | 12.9 | 20.9 | 0.00 | 0.00 | 0.00 | 46 | 990.8 |
| 20260504184907 | 26 | 233 | 12.9 | 24.1 | 0.00 | 0.00 | 0.00 | 46 | 990.7 |
| 20260504184407 | 26 | 254 | 12.9 | 24.1 | 0.00 | 0.00 | 0.00 | 46 | 990.7 |
| 20260504183907 | 26 | 258 | 14.5 | 32.2 | 0.00 | 0.00 | 0.00 | 45 | 990.8 |
| 20260504183406 | 26 | 233 | 14.5 | 32.2 | 0.00 | 0.00 | 0.00 | 46 | 991.0 |
| 20260504182905 | 26 | 245 | 12.9 | 32.2 | 0.00 | 0.00 | 0.00 | 45 | 991.0 |
| 20260504182406 | 26 | 266 | 20.9 | 32.2 | 0.00 | 0.00 | 0.00 | 44 | 991.0 |
| 20260504181907 | 26 | 238 | 16.1 | 25.7 | 0.00 | 0.00 | 0.00 | 46 | 991.1 |
| 20260504181407 | 26 | 251 | 14.5 | 27.4 | 0.00 | 0.00 | 0.00 | 46 | 991.0 |
| 20260504180905 | 26 | 251 | 14.5 | 27.4 | 0.00 | 0.00 | 0.00 | 46 | 991.0 |
| 20260504180405 | 26 | 268 | 12.9 | 11.3 | 0.00 | 0.00 | 0.00 | 44 | 991.2 |
| 20260504175907 | 26 | 268 | 12.9 | 20.9 | 0.00 | 0.00 | 0.00 | 44 | 991.3 |
| 20260504175404 | 26 | 269 | 14.5 | 30.6 | 0.00 | 0.00 | 0.00 | 44 | 991.3 |
| 20260504174904 | 26 | 266 | 19.3 | 30.6 | 0.00 | 0.00 | 0.00 | 45 | 991.3 |
| 20260504174402 | 26 | 220 | 12.9 | 27.4 | 0.00 | 0.00 | 0.00 | 46 | 991.5 |
| 20260504173904 | 26 | 207 | 14.5 | 22.5 | 0.00 | 0.00 | 0.00 | 46 | 991.5 |
| 20260504173403 | 26 | 254 | 16.1 | 30.6 | 0.00 | 0.00 | 0.00 | 47 | 991.6 |
| 20260504173133 | 26 | 240 | 14.5 | 30.6 | 0.00 | 0.00 | 0.00 | 47 | 991.5 |
| 20260504172407 | 25 | 272 | 17.7 | 30.6 | 0.00 | 0.00 | 0.00 | 46 | 991.7 |
| 20260504171902 | 25 | 247 | 14.5 | 20.9 | 0.00 | 0.00 | 0.00 | 46 | 991.8 |
| 20260504171404 | 25 | 233 | 6.4 | 33.8 | 0.00 | 0.00 | 0.00 | 48 | 991.9 |
| 20260504170902 | 25 | 243 | 24.1 | 33.8 | 0.00 | 0.00 | 0.00 | 53 | 992.0 |
| 20260504170403 | -17 | 0.0 | 0.0 | 0.00 | 0.00 | 0.00 | 991.9 | ||
| 20260504160355 | -17 | 0.0 | 0.0 | 0.00 | 0.00 | 0.00 | 992.8 | ||
| 20260504150849 | 22 | 250 | 14.5 | 19.3 | 0.00 | 0.00 | 0.00 | 54 | 993.1 |
| 20260504150343 | 22 | 250 | 14.5 | 19.3 | 0.00 | 0.00 | 0.00 | 54 | 993.1 |
| 20260504140841 | 21 | 262 | 16.1 | 25.7 | 0.00 | 0.00 | 0.00 | 60 | 993.5 |
| 20260504140341 | 21 | 244 | 11.3 | 25.7 | 0.00 | 0.00 | 0.00 | 60 | 993.7 |
| 20260504130336 | 16 | 233 | 6.4 | 14.5 | 0.00 | 0.00 | 0.00 | 80 | 993.8 |
| 20260504110331 | 11 | 83 | 3.2 | 3.2 | 0.00 | 0.00 | 0.00 | 89 | 993.5 |